Weather History for Topeka Forbes, KS

Change the Weather History Date:

Saturday, February 9, 2013

  Actual Average Record
Temperature  
Mean Temperature 41 °F -  
Max Temperature 52 °F 38 °F 71 °F (1976)
Min Temperature 30 °F 17 °F -17 °F (1979)
Degree Days  
Heating Degree Days 24    
Moisture  
Dew Point 33 °F    
Average Humidity 77    
Maximum Humidity 92    
Minimum Humidity 52    
Precipitation  
Precipitation 0.00 in - - ()
Sea Level Pressure  
Sea Level Pressure 29.95 in    
Wind  
Wind Speed 13 mph (SE)    
Max Wind Speed 21 mph    
Max Gust Speed 30 mph    
Visibility 9 miles    
Events      
Averages and records for this station are not official NWS values.
T = Trace of Precipitation, MM = Missing Value Source: NWS Daily Summary

Daily Weather History Graph

Daily Weather History Graph

Search for Another Location

Airport:

Trip Planner

Search our weather history database for the weather conditions in past years. The results will help you decide how hot, cold, wet, or windy it might be!

Date:

Astronomy

Feb. 09, 2013 Rise Set
Actual Time 7:20 AM CST 5:53 PM CST
Civil Twilight 6:53 AM CST 6:21 PM CST
Nautical Twilight 6:21 AM CST 6:52 PM CST
Astronomical Twilight 5:50 AM CST 7:23 PM CST
Moon 6:33 AM CST (2/9) 5:37 PM CST (2/9)
Length of Visible Light 11h 28m
Length of Day
10h 32m
Waning Crescent, 0% of the Moon is Illuminated
Feb 9
Waning Crescent
Feb 10
New
Feb 17
First Quarter
Feb 25
Full
Mar 4
Last Quarter

Hourly Weather History & Observations

Time (CST) Temp. Windchill Dew Point Humidity Pressure Visibility Wind Dir Wind Speed Gust Speed Precip Events Conditions
12:53 AM 30.0 °F 22.4 °F 27.0 °F 88% 30.20 in 8.0 mi ESE 8.1 mph - N/A   Clear
1:53 AM 30.0 °F 22.4 °F 27.0 °F 88% 30.19 in 7.0 mi ESE 8.1 mph - N/A   Clear
2:53 AM 30.0 °F 22.4 °F 28.0 °F 92% 30.18 in 6.0 mi ESE 8.1 mph - N/A   Clear
3:53 AM 30.0 °F 20.5 °F 28.0 °F 92% 30.15 in 6.0 mi ESE 11.5 mph - N/A   Clear
4:53 AM 30.9 °F 22.2 °F 28.0 °F 89% 30.14 in 7.0 mi ESE 10.4 mph - N/A   Clear
5:53 AM 30.9 °F 21.7 °F 28.0 °F 89% 30.13 in 7.0 mi SE 11.5 mph - N/A   Clear
6:53 AM 30.9 °F 22.8 °F 28.9 °F 92% 30.13 in 7.0 mi SE 9.2 mph - N/A   Clear
7:53 AM 32.0 °F 24.2 °F 28.9 °F 88% 30.13 in 7.0 mi SE 9.2 mph - N/A   Clear
9:53 AM 37.0 °F 28.1 °F 32.0 °F 82% 30.10 in 10.0 mi SE 15.0 mph - N/A   Clear
10:53 AM 42.1 °F 34.5 °F 33.1 °F 70% 30.08 in 10.0 mi SSE 15.0 mph 24.2 mph N/A   Clear
11:53 AM 46.0 °F 39.9 °F 35.1 °F 66% 30.04 in 10.0 mi SSE 13.8 mph - N/A   Clear
12:53 PM 48.9 °F - 36.0 °F 61% 29.99 in 10.0 mi SSE 18.4 mph - N/A   Clear
1:53 PM 52.0 °F - 37.0 °F 57% 29.94 in 10.0 mi SSE 18.4 mph 24.2 mph N/A   Clear
2:53 PM 51.1 °F - 36.0 °F 56% 29.91 in 10.0 mi South 17.3 mph 25.3 mph N/A   Partly Cloudy
3:53 PM 48.9 °F - 32.0 °F 52% 29.88 in 10.0 mi SE 19.6 mph 24.2 mph N/A   Overcast
4:53 PM 48.0 °F - 30.9 °F 52% 29.86 in 10.0 mi SSE 17.3 mph 27.6 mph N/A   Overcast
5:53 PM 45.0 °F 36.9 °F 33.1 °F 63% 29.85 in 10.0 mi SSE 20.7 mph 29.9 mph 0.00 in   Overcast
6:53 PM 43.0 °F 35.7 °F 34.0 °F 71% 29.82 in 10.0 mi SE 15.0 mph 25.3 mph 0.00 in   Overcast
7:53 PM 43.0 °F 35.7 °F 35.1 °F 74% 29.81 in 10.0 mi SE 15.0 mph - N/A   Overcast
8:53 PM 42.1 °F 34.2 °F 35.1 °F 76% 29.80 in 10.0 mi SSE 16.1 mph - N/A   Overcast
9:20 PM 42.8 °F 35.1 °F 35.6 °F 76% 29.77 in 10.0 mi SSE 16.1 mph - N/A   Overcast
9:53 PM 41.0 °F 32.5 °F 36.0 °F 82% 29.76 in 7.0 mi SE 17.3 mph 23.0 mph N/A   Overcast
10:32 PM 42.8 °F 35.1 °F 37.4 °F 81% 29.72 in 10.0 mi SSE 16.1 mph 24.2 mph N/A   Overcast
10:53 PM 42.1 °F 33.1 °F 37.0 °F 82% 29.71 in 10.0 mi SSE 20.7 mph 26.5 mph N/A   Overcast
11:32 PM 42.8 °F 34.8 °F 39.2 °F 87% 29.69 in 8.0 mi SSE 17.3 mph 25.3 mph N/A   Overcast
11:53 PM 42.1 °F 33.6 °F 39.0 °F 89% 29.71 in 5.0 mi SSE 18.4 mph - N/A   Overcast